When you browse on this site, cookies collect data to enhance your experience and personalize the content and advertising you see.
Visit our Privacy Policy to learn more. By continuing to use the site, you agree to this use of cookies and data.
  • In Spain
  • List of Countries
  • For 7 days
  • Water Temperature
  • Weather Map
  • Weather Widgets
  • user-avatar
    Login

    Hourly Weather Satif

    Today, 17 February, Monday

    Time Temperature Precipitation Wind Pressure Humidity
    00:00 +10°C° 0 mm 1 mps 677 mmHg 78%
    01:00 +9°C° 0 mm 1 mps 677 mmHg 77%
    02:00 +8°C° 0 mm 0 mps 676 mmHg 77%
    03:00 +7°C° 0 mm 0 mps 676 mmHg 77%
    04:00 +7°C° 0 mm 0 mps 676 mmHg 77%
    05:00 +8°C° 0 mm 1 mps 676 mmHg 76%
    06:00 +8°C° 0 mm 1 mps 676 mmHg 75%
    07:00 +10°C° 0 mm 1 mps 677 mmHg 67%
    08:00 +12°C° 0 mm 1 mps 678 mmHg 58%
    09:00 +14°C° 0 mm 1 mps 679 mmHg 49%
    10:00 +15°C° 0 mm 1 mps 679 mmHg 44%
    11:00 +16°C° 0 mm 1 mps 679 mmHg 38%
    12:00 +19°C° 0 mm 1 mps 679 mmHg 33%
    13:00 +19°C° 0 mm 1 mps 678 mmHg 32%
    14:00 +19°C° 0 mm 1 mps 678 mmHg 32%
    15:00 +18°C° 0 mm 2 mps 678 mmHg 31%
    16:00 +16°C° 0 mm 2 mps 677 mmHg 41%
    17:00 +15°C° 0 mm 2 mps 677 mmHg 50%
    18:00 +13°C° 0 mm 2 mps 677 mmHg 59%
    19:00 +12°C° 0 mm 2 mps 677 mmHg 63%
    20:00 +11°C° 0 mm 1 mps 677 mmHg 67%
    21:00 +11°C° 0 mm 1 mps 677 mmHg 71%
    22:00 +10°C° 0 mm 1 mps 677 mmHg 72%
    23:00 +10°C° 0 mm 1 mps 676 mmHg 73%

    Tomorrow, 18 February, Tuesday

    Time Temperature Precipitation Wind Pressure Humidity
    00:00 +8°C° 0 mm 0 mps 676 mmHg 74%
    01:00 +8°C° 0 mm 0 mps 676 mmHg 75%
    02:00 +8°C° 0 mm 1 mps 676 mmHg 75%
    03:00 +8°C° 0 mm 1 mps 676 mmHg 76%
    04:00 +8°C° 0 mm 1 mps 676 mmHg 77%
    05:00 +7°C° 0 mm 1 mps 676 mmHg 78%
    06:00 +7°C° 0 mm 1 mps 676 mmHg 80%
    07:00 +8°C° 0 mm 1 mps 676 mmHg 73%
    08:00 +10°C° 0 mm 1 mps 677 mmHg 66%
    09:00 +12°C° 0 mm 1 mps 678 mmHg 60%
    10:00 +13°C° 0 mm 1 mps 678 mmHg 56%
    11:00 +14°C° 0 mm 2 mps 678 mmHg 53%
    12:00 +15°C° 0 mm 2 mps 679 mmHg 49%
    13:00 +15°C° 0 mm 2 mps 678 mmHg 51%
    14:00 +14°C° 0 mm 3 mps 678 mmHg 52%
    15:00 +14°C° 0 mm 3 mps 678 mmHg 54%
    16:00 +13°C° 0 mm 3 mps 678 mmHg 64%
    17:00 +11°C° 0 mm 3 mps 677 mmHg 74%
    18:00 +9°C° 0 mm 3 mps 677 mmHg 84%
    19:00 +9°C° 0 mm 3 mps 677 mmHg 86%
    20:00 +8°C° 0 mm 2 mps 678 mmHg 89%
    21:00 +9°C° 0 mm 1 mps 678 mmHg 91%
    22:00 +9°C° 0 mm 1 mps 678 mmHg 91%
    23:00 +9°C° 0 mm 1 mps 678 mmHg 90%

    Day after tomorrow, 19 February, Wednesday

    Time Temperature Precipitation Wind Pressure Humidity
    00:00 +9°C° 0 mm 1 mps 678 mmHg 90%
    01:00 +9°C° 0 mm 1 mps 677 mmHg 90%
    02:00 +8°C° 0 mm 1 mps 677 mmHg 89%
    03:00 +8°C° 0 mm 1 mps 677 mmHg 89%
    04:00 +8°C° 0 mm 1 mps 677 mmHg 89%
    05:00 +8°C° 0 mm 1 mps 677 mmHg 88%
    06:00 +8°C° 0 mm 1 mps 677 mmHg 88%
    07:00 +8°C° 0 mm 2 mps 678 mmHg 86%
    08:00 +8°C° 0 mm 2 mps 678 mmHg 83%
    09:00 +8°C° 0 mm 2 mps 679 mmHg 81%
    10:00 +9°C° 0 mm 2 mps 679 mmHg 78%
    11:00 +9°C° 0 mm 2 mps 679 mmHg 75%
    12:00 +9°C° 0 mm 2 mps 679 mmHg 72%
    13:00 +9°C° 0 mm 3 mps 678 mmHg 72%
    14:00 +9°C° 0 mm 3 mps 678 mmHg 72%
    15:00 +8°C° 0 mm 4 mps 678 mmHg 72%
    16:00 +8°C° 0 mm 3 mps 678 mmHg 76%
    17:00 +7°C° 0 mm 3 mps 677 mmHg 80%
    18:00 +6°C° 0 mm 2 mps 677 mmHg 84%
    19:00 +6°C° 0 mm 2 mps 677 mmHg 86%
    20:00 +6°C° 0 mm 2 mps 677 mmHg 87%
    21:00 +6°C° 0 mm 1 mps 677 mmHg 89%
    22:00 +6°C° 0 mm 1 mps 677 mmHg 90%
    23:00 +5°C° 0 mm 1 mps 677 mmHg 91%

    20 February, Thursday

    Time Temperature Precipitation Wind Pressure Humidity
    00:00 +5°C° 0 mm 1 mps 676 mmHg 92%
    01:00 +5°C° 0 mm 1 mps 676 mmHg 92%
    02:00 +4°C° 0 mm 1 mps 675 mmHg 92%
    03:00 +4°C° 0 mm 1 mps 675 mmHg 92%
    04:00 +4°C° 0 mm 1 mps 675 mmHg 91%
    05:00 +4°C° 0 mm 1 mps 674 mmHg 91%
    06:00 +4°C° 0 mm 1 mps 674 mmHg 90%
    07:00 +6°C° 0 mm 1 mps 675 mmHg 82%
    08:00 +8°C° 0 mm 1 mps 676 mmHg 75%
    09:00 +10°C° 0 mm 1 mps 676 mmHg 67%
    10:00 +10°C° 0 mm 2 mps 676 mmHg 60%
    11:00 +13°C° 0 mm 2 mps 676 mmHg 54%
    12:00 +13°C° 0 mm 3 mps 676 mmHg 48%
    13:00 +14°C° 0 mm 3 mps 676 mmHg 47%
    14:00 +14°C° 0 mm 3 mps 675 mmHg 46%
    15:00 +14°C° 0 mm 3 mps 675 mmHg 45%
    16:00 +13°C° 0 mm 3 mps 675 mmHg 53%
    17:00 +11°C° 0 mm 3 mps 674 mmHg 60%
    18:00 +10°C° 0 mm 2 mps 674 mmHg 68%
    19:00 +9°C° 0 mm 2 mps 674 mmHg 69%
    20:00 +9°C° 0 mm 2 mps 674 mmHg 71%
    21:00 +8°C° 0 mm 2 mps 674 mmHg 73%
    22:00 +8°C° 0 mm 2 mps 674 mmHg 74%
    23:00 +7°C° 0 mm 2 mps 674 mmHg 76%

    21 February, Friday

    Time Temperature Precipitation Wind Pressure Humidity
    00:00 +7°C° 0 mm 2 mps 674 mmHg 77%
    01:00 +8°C° 0 mm 1 mps 674 mmHg 78%
    02:00 +7°C° 0 mm 1 mps 674 mmHg 79%
    03:00 +7°C° 0 mm 1 mps 673 mmHg 80%
    04:00 +7°C° 0 mm 1 mps 673 mmHg 81%
    05:00 +7°C° 0 mm 1 mps 673 mmHg 81%
    06:00 +6°C° 0 mm 1 mps 674 mmHg 82%
    13:00 +14°C° 0 mm 2 mps 678 mmHg 49%
    14:00 +13°C° 0 mm 3 mps 677 mmHg 57%
    15:00 +13°C° 0 mm 4 mps 677 mmHg 60%
    16:00 +11°C° 0 mm 4 mps 677 mmHg 68%
    17:00 +9°C° 0 mm 3 mps 677 mmHg 77%
    18:00 +8°C° 0 mm 3 mps 677 mmHg 86%
    19:00 +7°C° 0 mm 3 mps 677 mmHg 87%
    20:00 +7°C° 0 mm 2 mps 678 mmHg 89%
    21:00 +7°C° 0 mm 1 mps 678 mmHg 90%
    22:00 +6°C° 0 mm 2 mps 678 mmHg 90%
    23:00 +6°C° 0 mm 2 mps 678 mmHg 91%

    22 February, Saturday

    Time Temperature Precipitation Wind Pressure Humidity
    00:00 +5°C° 0 mm 2 mps 678 mmHg 91%
    01:00 +5°C° 0 mm 2 mps 678 mmHg 89%
    02:00 +5°C° 0 mm 2 mps 678 mmHg 87%
    03:00 +5°C° 0 mm 2 mps 679 mmHg 86%
    04:00 +5°C° 0 mm 2 mps 679 mmHg 85%
    05:00 +4°C° 0 mm 2 mps 679 mmHg 84%
    06:00 +5°C° 0 mm 1 mps 679 mmHg 83%
    07:00 +6°C° 0 mm 1 mps 679 mmHg 79%
    08:00 +6°C° 0 mm 1 mps 680 mmHg 75%
    09:00 +7°C° 0 mm 1 mps 680 mmHg 71%
    10:00 +7°C° 0 mm 2 mps 681 mmHg 63%
    11:00 +9°C° 0 mm 2 mps 681 mmHg 54%
    12:00 +10°C° 0 mm 3 mps 681 mmHg 46%
    13:00 +10°C° 0 mm 3 mps 681 mmHg 45%
    14:00 +10°C° 0 mm 3 mps 681 mmHg 45%
    15:00 +10°C° 0 mm 4 mps 680 mmHg 44%
    16:00 +9°C° 0 mm 3 mps 680 mmHg 54%
    17:00 +7°C° 0 mm 3 mps 680 mmHg 64%
    18:00 +5°C° 0 mm 3 mps 680 mmHg 74%
    19:00 +5°C° 0 mm 2 mps 680 mmHg 78%
    20:00 +4°C° 0 mm 2 mps 680 mmHg 82%
    21:00 +5°C° 0 mm 1 mps 680 mmHg 86%
    22:00 +4°C° 0 mm 1 mps 680 mmHg 87%
    23:00 +4°C° 0 mm 1 mps 680 mmHg 88%
    Show more